星链-32092 (STARLINK-32092 )

导读

STARLINK-32092是美国于2024年5月8日发射的星链系列卫星,星链是SpaceX打造的低轨卫星互联网项目,该卫星旨在为全球提供高速低延迟宽带网络服务,覆盖偏远网络盲区,同时支持车载、机载、船载等移动场景联网,进一步扩充星链星座规模,提升星座服务覆盖密度与容量。

基本信息
目录编号:
59700
目录名称:
STARLINK-32092
国际标识:
2024-086U
轨道中心:
EARTH
卫星名称:
星链-32092
卫星全名:
星链-32092 (STARLINK-32092 )
卫星状态:
在轨 (已飞行771 天)
发射日期:
2024-05-08 UTC
国别 :
美国 (US)
星等 :
--
轨道信息
数据来源 国际轨道数据 AOE轨道数据
星历时间 2026-06-17T03:59:45+0800
1天前
查看轨道信息
2026-06-17T06:00:00+0800
1天前
查看轨道信息
半长轴 6861.235km 6861.218km
偏心率 0.0001037 0.0001252
轨道倾角 42.998° 42.998°
近地点辐角 265.631° 265.527°
升交点赤经 220.089° 219.617°
平近点角 94.442° 194.336°
近地点 482.386km 482.221km
远地点 483.81km 483.941km
周期 94.268分钟 94.267分钟
每日圈数 15.275639 15.275695
详细信息
固有亮度:
5
最大亮度:
1.5
卫星平台:
Starlink v2.0 mini
覆盖范围:
全球
运营商:
太空探索技术公司
运营商所在国:
美国
制造商(研发单位):
太空探索技术公司
制造商所在国:
美国
使用方式:
暂无
卫星简介
星链(Starlink)计划是由太空探索技术公司(SpaceX)提出的一个巨型低轨卫星互联网星座项目,计划在2019年至2024年间在太空搭建由约1.2万颗卫星组成的“星链”网络,其中1584颗将部署在地球上空550千米处的近地轨道,并从2020年开始工作。该卫星仍在工作。
2D轨道图
3D轨道图
轨道高度分析图
轨道倾角分析图
轨道综合分析图
查看轨道综合分析图